www.pogodaiklimat.ru

Погода и климат >> Архив погоды >> Австралия >> Южная Австралия >> Однадатта


ПОГОДА в Однадатте

  • Прогноз погоды в Однадатте
  • Монитор погоды в Однадатте

АРХИВ ПОГОДЫ в Однадатте

Время (UTC), дата Ветер
(напр.,м/с)
 
Видим.   Явления Облачность Т
(С)
Тd
(С)
f
(%)
Тe
(С)
Тes
(С)
Комфортность P
(гПа)
Po
(гПа)
Тmin
(С)
Tmax
(С)
R
(мм)
R24
(мм)
S
(см)
13 15.09 С 6 н/о н/о +25.4 -5.0 13 +23 +23 комфорт 1016.9 1003.2
14 15.09 С 5 н/о н/о +24.1 -5.0 14 +22 +22 комфорт 1016.6 1002.9 +34.4
16 15.09 СВ 6 н/о н/о +22.5 -4.5 16 +21 +21 комфорт 1015.5 1001.8
17 15.09 С 5 н/о н/о +21.3 -4.7 17 +20 +20 1015.1 1001.4
19 15.09 СЗ 4 н/о н/о +17.0 -6.1 20 +17 +17 1015.4 1001.7
20 15.09 СЗ 4 н/о н/о +16.5 -5.9 21 +16 +16 1016.0 1002.3
22 15.09 штиль 0 н/о н/о +16.8 -6.3 20 +17 +17 1017.7 1003.9
23 15.09 штиль 0 н/о н/о +21.5 -5.3 16 +20 +20 1018.4 1004.6
01 16.09 СЗ 4 н/о н/о +29.3 -6.8 9 +26 +26 жарко 1017.8 1004.0
02 16.09 СЗ 7 н/о н/о +32.6 -5.9 8 +29 +29 жарко 1017.2 1003.4 +14.0
04 16.09 ЮЗ 9 н/о н/о +33.7 -2.1 10 +30 +30 жарко 1016.1 1002.4
05 16.09 ЮЗ 8 н/о н/о +31.8 +2.9 16 +29 +29 жарко 1015.9 1002.2
07 16.09 ЮЗ 9 н/о н/о +31.3 +5.7 20 +29 +29 жарко 1015.9 1002.2
08 16.09 Ю 10 н/о н/о +30.0 +7.2 24 +29 +29 жарко 1016.3 1002.6
10 16.09 Ю 11 н/о н/о +25.1 +9.0 36 +26 +26 жарко 1018.5 1004.7
11 16.09 Ю 11 н/о н/о +23.5 +6.3 33 +24 +24 комфорт 1019.6 1005.8
13 16.09 ЮВ 9 н/о н/о +20.3 +3.5 33 +20 +20 1020.6 1006.8
14 16.09 Ю 10 н/о н/о +19.1 +2.9 34 +18 +18 1020.7 1006.9 +34.6
16 16.09 Ю 9 н/о н/о +16.4 +3.1 41 +15 +15 1020.7 1006.9
17 16.09 Ю 5 н/о н/о +15.3 +4.1 47 +14 +14 1021.4 1007.6
19 16.09 Ю 5 н/о н/о +12.8 +3.7 54 +11 +11 1021.4 1007.6
20 16.09 Ю 4 н/о н/о +11.9 +3.7 57 +10 +10 1022.0 1008.2
22 16.09 ЮВ 8 н/о н/о +12.6 +3.8 55 +10 +10 1023.3 1009.5
23 16.09 В 8 н/о н/о +14.5 +3.9 49 +12 +12 1024.5 1010.6
01 17.09 В 7 н/о н/о +18.5 +3.6 37 +18 +18 1024.2 1010.4
02 17.09 В 6 н/о н/о +19.8 +1.3 29 +20 +20 1023.8 1010.0 +10.9
04 17.09 В 5 н/о н/о +22.5 +1.5 25 +22 +22 комфорт 1022.3 1008.5
05 17.09 В 5 н/о н/о +23.8 +1.4 23 +23 +23 комфорт 1021.4 1007.6
07 17.09 В 5 н/о н/о +24.1 -0.9 19 +23 +23 комфорт 1020.8 1007.0
08 17.09 В 6 н/о н/о +23.7 -0.6 20 +22 +22 комфорт 1020.9 1007.1
10 17.09 В 5 н/о н/о +20.2 -5.6 17 +20 +20 1022.1 1008.3
11 17.09 ЮВ 7 н/о н/о +18.9 -4.5 20 +18 +18 1022.8 1009.0
13 17.09 В 5 н/о н/о +16.6 -4.6 23 +16 +16 1023.7 1009.9
14 17.09 В 5 н/о н/о +15.6 -4.3 25 +15 +15 1023.4 1009.6 +25.0
16 17.09 В 6 н/о н/о +14.2 -4.5 27 +13 +13 1022.5 1008.7
17 17.09 В 7 н/о н/о +14.2 -5.0 26 +12 +12 1022.1 1008.3
19 17.09 В 8 н/о н/о +13.1 -6.5 25 +11 +11 1021.7 1007.9
20 17.09 СВ 6 н/о н/о +12.8 -7.2 24 +11 +11 1022.6 1008.8
22 17.09 СВ 4 н/о н/о +13.3 -7.9 22 +12 +12 1024.0 1010.2
23 17.09 СВ 10 н/о н/о +16.7 -9.2 16 +15 +15 1023.9 1010.1
01 18.09 С 9 н/о н/о +20.5 -8.8 13 +19 +19 1022.8 1009.0
02 18.09 С 7 н/о н/о +23.0 -7.9 12 +21 +21 комфорт 1021.9 1008.1 +11.5
04 18.09 СВ 6 н/о н/о +26.6 -7.5 10 +24 +24 комфорт 1019.6 1005.8
05 18.09 СВ 7 н/о н/о +27.1 -5.9 11 +24 +24 комфорт 1018.4 1004.6
07 18.09 СВ 8 н/о н/о +28.4 -6.1 10 +25 +25 комфорт 1016.8 1003.1
08 18.09 СВ 7 н/о н/о +28.1 -7.7 9 +25 +25 комфорт 1016.9 1003.2
10 18.09 СВ 7 н/о н/о +24.7 -10.3 9 +22 +22 комфорт 1017.2 1003.4
11 18.09 В 6 н/о н/о +23.3 -11.3 9 +21 +21 комфорт 1017.8 1004.0
13 18.09 СВ 6 н/о н/о +20.6 -12.0 10 +20 +20 1017.5 1003.7
14 18.09 СВ 11 н/о н/о +20.3 -12.3 10 +19 +19 1016.2 1002.5 +29.4
16 18.09 СВ 11 н/о н/о +19.2 -11.9 11 +18 +18 1015.1 1001.4
17 18.09 СВ 9 н/о н/о +18.5 -12.5 11 +17 +17 1014.7 1001.0
19 18.09 С 6 н/о н/о +17.6 -12.1 12 +17 +17 1015.0 1001.3
20 18.09 СВ 7 н/о н/о +17.1 -12.5 12 +16 +16 1015.2 1001.5
22 18.09 СВ 7 н/о н/о +18.2 -12.7 11 +17 +17 1015.4 1001.7
23 18.09 С 11 н/о н/о +22.2 -13.6 8 +20 +20 1015.8 1002.1
01 19.09 С 12 н/о н/о +27.7 -11.2 7 +24 +24 комфорт 1014.1 1000.4
02 19.09 С 11 н/о н/о +31.7 -8.3 7 +28 +28 жарко 1012.8 999.1 +15.9
04 19.09 С 12 н/о н/о +36.3 -5.0 7 +32 +32 жарко 1009.9 996.2
05 19.09 С 12 н/о н/о +37.2 -4.3 7 +33 +33 жарко 1008.5 994.9
07 19.09 С 11 н/о н/о +36.1 -5.1 7 +32 +32 жарко 1007.4 993.8
08 19.09 С 10 н/о н/о +35.4 -5.6 7 +31 +31 жарко 1007.6 994.0
10 19.09 С 8 н/о н/о +31.9 -6.4 8 +28 +28 жарко 1008.1 994.5
11 19.09 С 8 н/о н/о +30.6 -7.4 8 +27 +27 жарко 1008.6 995.0
13 19.09 С 8 н/о н/о +27.5 -8.2 9 +24 +24 комфорт 1008.1 994.5
14 19.09 С 8 н/о н/о +26.9 -8.6 9 +24 +24 комфорт 1007.8 994.2 +37.9
16 19.09 С 9 н/о н/о +26.0 -9.3 9 +23 +23 комфорт 1006.6 993.0
17 19.09 С 7 н/о н/о +24.8 -10.2 9 +22 +22 комфорт 1006.2 992.6
19 19.09 С 8 н/о н/о +24.6 -10.3 9 +22 +22 комфорт 1006.4 992.8
20 19.09 ЮЗ 7 н/о н/о +20.6 +7.2 42 +21 +21 комфорт 1008.8 995.2
22 19.09 Ю 12 н/о н/о +18.1 +8.4 53 +17 +17 1011.7 998.0
23 19.09 Ю 12 н/о н/о +18.1 +8.7 54 +17 +17 1011.8 998.1
01 20.09 Ю 12 н/о н/о +18.0 +7.4 50 +17 +17 1011.8 998.1
02 20.09 Ю 13 н/о н/о +18.1 +7.8 51 +17 +17 1012.6 998.9 +17.1
04 20.09 Ю 14 н/о н/о +17.1 +8.3 56 +15 +15 1012.7 999.0
05 20.09 ЮЗ 12 н/о н/о +17.2 +5.2 45 +15 +15 1013.5 999.8
07 20.09 ЮЗ 13 н/о н/о +16.5 +5.8 49 +14 +14 1014.7 1001.0
08 20.09 ЮЗ 13 н/о н/о +14.4 +6.7 60 +11 +11 1015.9 1002.2
10 20.09 ЮЗ 11 н/о н/о +12.4 +6.2 66 +9 +9 1018.4 1004.6
11 20.09 ЮЗ 5 н/о н/о +12.1 +6.4 68 +10 +10 1019.7 1005.9
13 20.09 ЮЗ 3 н/о н/о +11.0 +5.7 70 +9 +9 1019.9 1006.1
14 20.09 Ю 4 н/о н/о +9.7 +5.1 73 +7 +7 1020.1 1006.3 +29.3
16 20.09 ЮЗ 5 н/о н/о +9.2 +5.2 76 +6 +6 1019.7 1005.9
17 20.09 ЮЗ 5 н/о н/о +7.8 +4.6 80 +4 +4 1019.4 1005.6
19 20.09 Ю 6 н/о н/о +6.9 +3.7 80 +2 +2 1020.1 1006.3
20 20.09 Ю 3 н/о н/о +6.1 +3.3 82 +3 +3 1021.4 1007.6
22 20.09 З 2 н/о н/о +7.8 +3.5 74 +6 +6 1024.2 1010.4
23 20.09 ЮЗ 6 н/о н/о +10.5 +3.5 62 +8 +8 1025.1 1011.2
01 21.09 Ю 5 н/о н/о +13.9 +2.5 46 +12 +12 1025.6 1011.7
02 21.09 Ю 6 н/о н/о +15.5 +1.3 38 +14 +14 1024.9 1011.0 +5.3
04 21.09 Ю 6 н/о н/о +17.6 -0.6 29 +17 +17 1023.5 1009.7
05 21.09 ЮЗ 7 н/о н/о +19.0 -0.4 27 +18 +18 1022.7 1008.9
07 21.09 ЮЗ 4 н/о н/о +18.8 -1.6 25 +19 +19 1022.2 1008.4
08 21.09 ЮЗ 5 н/о н/о +18.8 -2.7 23 +18 +18 1022.4 1008.6
10 21.09 Ю 3 н/о н/о +16.4 -3.1 26 +16 +16 1023.8 1010.0
11 21.09 Ю 3 н/о н/о +14.7 -3.6 28 +14 +14 1024.6 1010.7
13 21.09 Ю 4 н/о н/о +12.8 -1.9 36 +11 +11 1025.3 1011.4
14 21.09 Ю 5 н/о н/о +12.4 -1.1 39 +11 +11 1025.5 1011.6 +20.5
16 21.09 Ю 3 н/о н/о +9.0 -2.6 44 +7 +7 1025.4 1011.5
17 21.09 Ю 2 н/о н/о +9.0 -2.0 46 +8 +8 1025.0 1011.1
19 21.09 штиль 0 н/о н/о +8.3 -1.5 50 +8 +8 1025.7 1011.8
20 21.09 Ю 2 н/о н/о +5.4 -5.6 45 +4 +4 1026.9 1013.0
22 21.09 штиль 0 н/о н/о +8.2 -3.3 44 +8 +8 1028.4 1014.5
23 21.09 В 2 н/о н/о +12.5 -1.4 38 +12 +12 1029.2 1015.3
01 22.09 ЮВ 4 н/о н/о +17.4 +0.1 31 +17 +17 1029.2 1015.3
02 22.09 ЮВ 4 н/о н/о +18.5 +0.2 29 +18 +18 1029.0 1015.1 +5.2
04 22.09 В 4 н/о н/о +20.7 -1.1 23 +21 +21 комфорт 1027.1 1013.2
05 22.09 Ю 3 н/о н/о +20.5 -1.9 22 +21 +21 комфорт 1026.6 1012.7
07 22.09 ЮЗ 5 н/о н/о +22.0 -2.7 19 +21 +21 комфорт 1025.5 1011.6
08 22.09 Ю 4 н/о н/о +21.3 -3.2 19 +20 +20 1026.1 1012.2
10 22.09 Ю 3 н/о н/о +18.6 -3.5 22 +19 +19 1027.4 1013.5
11 22.09 Ю 2 н/о н/о +17.3 -3.4 24 +18 +18 1028.0 1014.1
13 22.09 ЮВ 2 н/о н/о +13.8 -5.9 25 +14 +14 1028.6 1014.7

 

Местоположение метеостанции Однадатта (Южная Австралия, Австралия): широта -27.55 долгота 135.45 высота над уровнем моря 117 м.

В архиве по умолчанию представлена погода в Однадатте за последнюю неделю. Архивные данные за месяц целиком и за предыдущие месяцы, начиная с января 2011 года, Вы можете получить, выбрав интересующий диапазон дат из раскрывающегося списка и нажав кнопку "Ввод!".


*Определитесь, кто Вы:
робот инопланетянин человек

Внимание! Время в таблицах - всемирное. Для получения местного времени необходимо прибавить поправку, которая равна 9.5 ч.

Смотрите также архив погоды в соседних городах и на ближайших метеорологических станциях:

Погода в Кубер-Педи (Южная Австралия, Австралия) (180 км)
Погода в Марри (Южная Австралия, Австралия) (346 км)
Погода в Эрнабелле (Южная Австралия, Австралия) (354 км)
Погода в Олимпик Дэм (Южная Австралия, Австралия) (354 км)
Погода в Таркуле (Южная Австралия, Австралия) (363 км)
Погода на Аэродроме Вумера (Южная Австралия, Австралия) (422 км)
Погода в Бердсвилле (Квинсленд, Австралия) (429 км)
Погода в Ли-Крике (Южная Австралия, Австралия) (445 км)
Погода в Элис-Спрингсе (Северная территория, Австралия) (446 км)
Погода в Мумбе (Южная Австралия, Австралия) (471 км)

Пояснения к столбцам:

Ветер - указаны скорость ветра в м/с - средняя за 10 мин, порывы в срок и между сроками (в фигурных скобках) и направление, откуда дует ветер: С - северный, СВ - северо-восточный, В - восточный, ЮВ - юго-восточный, Ю - южный, ЮЗ - юго-западный, З - западный, СЗ - северо-западный.
Видимость - горизонтальная дальность видимости в метрах или километрах. При видимости от 1 до 10 км при отсутствии осадков обычно наблюдается дымка, при ухудшении видимости до 1 км и менее - туман. В сухую погоду видимость может ухудшаться дымом, пылью или мглою.
Явления - указаны атмосферные явления, наблюдавшиеся в срок или в последний час перед сроком; фигурными скобками обозначены явления, наблюдавшиеся между сроками (за 1-3 часа до срока); квадратными скобками обозначены град или гололедные отложения с указанием их диаметра в мм.
Облачность - указаны через наклонную черту общая и нижняя облачность в баллах и высота нижней границы облаков в метрах; квадратными скобками обозначены формы облаков: Ci - перистые, Cs - перисто-слоистые, Cc - перисто-кучевые, Ac - высококучевые, As - высокослоистые, Sc - слоисто-кучевые, Ns - слоисто-дождевые, Cu - кучевые, Cb - кучево-дождевые. Подробнее классификацию облаков см. в Атласе облаков (PDF).
T - Температура воздуха - температура, измеренная на высоте 2 м над землей.
Td - Температура точки росы - температура, при понижении до которой содержащийся в воздухе водяной пар достигнет насыщения.
f - Относительная влажность воздуха - влажноcть воздуха, измеренная на высоте 2 м над землей.
Te - Эффективная температура - температура, которую ощущает одетый по сезону человек в тени. Характеристика душности погоды. При расчете учитывается влияние влажности воздуха и скорости ветра на теплоощущения человека.
Tes - Эффективная температура на солнце - температура, которую ощущает человек, с поправкой на солнечный нагрев. Характеристика знойности погоды. Зависит от высоты солнца над горизонтом, облачности и скорости ветра. Ночью, в пасмурную погоду, а также при ветре 12 м/с и более поправка равна нулю.
P - Атмосферное давление - приведенное к уровню моря атмосферное давление.
Po - Атмосферное давление - измеренное на уровне метеостанции атмосферное давление.
Tmin - Минимальная температура - минимум температуры воздуха на высоте 2 м над землей.
Tmax - Максимальная температура - максимум температуры воздуха на высоте 2 м над землей.
R - Количество осадков - Количество выпавших осадков за период времени, мм. При наведении курсора мыши на число - период времени, за который выпало указанное количество осадков.
R24 - Количество осадков - Количество выпавших осадков за 24 часа, мм.
S - Снежный покров - Высота снежного покрова, см. При наведении курсора мыши на число - состояние снежного покрова и степень покрытия местности в баллах.